Location: Alexandria
(38.8050°N, 77.0470°W)
Time: 00:09:40
(UTC-04:00)

Envisat - Pass Details

Date: 18 February 2018
Orbit: 764 x 766 km, 98.2° (Epoch: 21 May)

Event Time Altitude Azimuth Distance (km) Brightness Sun altitude
Exits shadow 19:03:31 - 146° (SE) 3,046 5.8 -15.1°
Reaches altitude 10° 19:05:29 10° 140° (SE) 2,294 5.1 -15.5°
Maximum altitude 19:10:13 42° 71° (ENE) 1,091 3.3 -16.4°
Drops below altitude 10° 19:14:58 10° 2° (N) 2,309 5.5 -17.4°
Sets 19:17:22 0° 355° (N) 3,239 6.3 -17.8°
